Zurück zum Katalog

THORAD AGENA D DEB

AktivPO
NORAD 4945·DEBRIS·🇺🇸 United States

Gestartet Apr 8, 1970 von Vandenberg Space Force Base

Loading…

Nächste Überflüge (nächste 24 Stunden)

TLE

AktuellSource: Space-Track

Epoche: Sep 14, 2026, 14:47 UTC

1 04945U 70025GF  26257.61637800  .00001415  00000-0  10456-2 0  9998
2 04945  99.8667 315.4376 0088808 236.5911 122.6730 13.95447366807663

Verfolge THORAD AGENA D DEB in Echtzeit mit AllMySat

Download on the App Store